Year,Month,Day,Hour,Minute,Value (Times are PST for temperature in C)
2014,11,20,00,00,7.40
2014,11,20,00,01,7.40
2014,11,20,00,02,7.40
2014,11,20,00,03,7.40
2014,11,20,00,04,7.40
2014,11,20,00,05,7.40
2014,11,20,00,06,7.40
2014,11,20,00,07,7.40
2014,11,20,00,08,7.40
2014,11,20,00,09,7.40
2014,11,20,00,10,7.40
2014,11,20,00,11,7.40
2014,11,20,00,12,7.40
2014,11,20,00,13,7.40
2014,11,20,00,14,7.40
2014,11,20,00,15,7.40
2014,11,20,00,16,7.40
2014,11,20,00,17,7.40
2014,11,20,00,18,7.40
2014,11,20,00,19,7.40
2014,11,20,00,20,7.40
2014,11,20,00,21,7.40
2014,11,20,00,22,7.40
2014,11,20,00,23,7.40
2014,11,20,00,24,7.40
2014,11,20,00,25,7.40
2014,11,20,00,26,7.40
2014,11,20,00,27,7.40
2014,11,20,00,28,7.40
2014,11,20,00,29,7.40
2014,11,20,00,30,7.40
2014,11,20,00,31,7.40
2014,11,20,00,32,7.40
2014,11,20,00,33,7.40
2014,11,20,00,34,7.40
2014,11,20,00,35,7.40
2014,11,20,00,36,7.40
2014,11,20,00,37,7.40
2014,11,20,00,38,7.40
2014,11,20,00,39,7.40
2014,11,20,00,40,7.40
2014,11,20,00,41,7.40
2014,11,20,00,42,7.40
2014,11,20,00,43,7.40
2014,11,20,00,44,7.40
2014,11,20,00,45,7.30
2014,11,20,00,46,7.30
2014,11,20,00,47,7.30
2014,11,20,00,48,7.30
2014,11,20,00,49,7.30
2014,11,20,00,50,7.30
2014,11,20,00,51,7.30
2014,11,20,00,52,7.30
2014,11,20,00,53,7.30
2014,11,20,00,54,7.30
2014,11,20,00,55,7.30
2014,11,20,00,56,7.30
2014,11,20,00,57,7.30
2014,11,20,00,58,7.30
2014,11,20,00,59,7.30
2014,11,20,01,00,7.30
2014,11,20,01,01,7.30
2014,11,20,01,02,7.30
2014,11,20,01,03,7.30
2014,11,20,01,04,7.20
2014,11,20,01,05,7.20
2014,11,20,01,06,7.20
2014,11,20,01,07,7.20
2014,11,20,01,08,7.20
2014,11,20,01,09,7.20
2014,11,20,01,10,7.20
2014,11,20,01,11,7.20
2014,11,20,01,12,7.20
2014,11,20,01,13,7.20
2014,11,20,01,14,7.20
2014,11,20,01,15,7.20
2014,11,20,01,16,7.20
2014,11,20,01,17,7.20
2014,11,20,01,18,7.20
2014,11,20,01,19,7.10
2014,11,20,01,20,7.10
2014,11,20,01,21,7.10
2014,11,20,01,22,7.10
2014,11,20,01,23,7.10
2014,11,20,01,24,7.10
2014,11,20,01,25,7.10
2014,11,20,01,26,7.10
2014,11,20,01,27,7.10
2014,11,20,01,28,7.00
2014,11,20,01,29,7.00
2014,11,20,01,30,7.00
2014,11,20,01,31,7.00
2014,11,20,01,32,7.00
2014,11,20,01,33,7.00
2014,11,20,01,34,6.90
2014,11,20,01,35,6.90
2014,11,20,01,36,6.90
2014,11,20,01,37,6.90
2014,11,20,01,38,6.90
2014,11,20,01,39,6.90
2014,11,20,01,40,6.90
2014,11,20,01,41,6.90
2014,11,20,01,42,6.90
2014,11,20,01,43,6.90
2014,11,20,01,44,6.90
2014,11,20,01,45,6.90
2014,11,20,01,46,6.90
2014,11,20,01,47,6.90
2014,11,20,01,48,6.90
2014,11,20,01,49,6.90
2014,11,20,01,50,6.90
2014,11,20,01,51,6.80
2014,11,20,01,52,6.80
2014,11,20,01,53,6.80
2014,11,20,01,54,6.80
2014,11,20,01,55,6.80
2014,11,20,01,56,6.80
2014,11,20,01,57,6.80
2014,11,20,01,58,6.80
2014,11,20,01,59,6.80
2014,11,20,02,00,6.80
2014,11,20,02,01,6.80
2014,11,20,02,02,6.80
2014,11,20,02,03,6.80
2014,11,20,02,04,6.80
2014,11,20,02,05,6.80
2014,11,20,02,06,6.80
2014,11,20,02,07,6.80
2014,11,20,02,08,6.80
2014,11,20,02,09,6.80
2014,11,20,02,10,6.80
2014,11,20,02,11,6.80
2014,11,20,02,12,6.80
2014,11,20,02,13,6.80
2014,11,20,02,14,6.80
2014,11,20,02,15,6.80
2014,11,20,02,16,6.80
2014,11,20,02,17,6.80
2014,11,20,02,18,6.80
2014,11,20,02,19,6.80
2014,11,20,02,20,6.80
2014,11,20,02,21,6.80
2014,11,20,02,22,6.80
2014,11,20,02,23,6.80
2014,11,20,02,24,6.80
2014,11,20,02,25,6.80
2014,11,20,02,26,6.80
2014,11,20,02,27,6.80
2014,11,20,02,28,6.80
2014,11,20,02,29,6.80
2014,11,20,02,30,6.80
2014,11,20,02,31,6.80
2014,11,20,02,32,6.80
2014,11,20,02,33,6.80
2014,11,20,02,34,6.80
2014,11,20,02,35,6.80
2014,11,20,02,36,6.80
2014,11,20,02,37,6.80
2014,11,20,02,38,6.80
2014,11,20,02,39,6.80
2014,11,20,02,40,6.80
2014,11,20,02,41,6.80
2014,11,20,02,42,6.80
2014,11,20,02,43,6.80
2014,11,20,02,44,6.80
2014,11,20,02,45,6.80
2014,11,20,02,46,6.80
2014,11,20,02,47,6.80
2014,11,20,02,48,6.80
2014,11,20,02,49,6.80
2014,11,20,02,50,6.80
2014,11,20,02,51,6.80
2014,11,20,02,52,6.80
2014,11,20,02,53,6.80
2014,11,20,02,54,6.80
2014,11,20,02,55,6.80
2014,11,20,02,56,6.80
2014,11,20,02,57,6.80
2014,11,20,02,58,6.80
2014,11,20,02,59,6.80
2014,11,20,03,00,6.80
2014,11,20,03,01,6.80
2014,11,20,03,02,6.80
2014,11,20,03,03,6.80
2014,11,20,03,04,6.80
2014,11,20,03,05,6.80
2014,11,20,03,06,6.80
2014,11,20,03,07,6.80
2014,11,20,03,08,6.80
2014,11,20,03,09,6.80
2014,11,20,03,10,6.80
2014,11,20,03,11,6.80
2014,11,20,03,12,6.80
2014,11,20,03,13,6.80
2014,11,20,03,14,6.80
2014,11,20,03,15,6.80
2014,11,20,03,16,6.80
2014,11,20,03,17,6.80
2014,11,20,03,18,6.80
2014,11,20,03,19,6.80
2014,11,20,03,20,6.80
2014,11,20,03,21,6.80
2014,11,20,03,22,6.80
2014,11,20,03,23,6.80
2014,11,20,03,24,6.80
2014,11,20,03,25,6.80
2014,11,20,03,26,6.80
2014,11,20,03,27,6.80
2014,11,20,03,28,6.80
2014,11,20,03,29,6.80
2014,11,20,03,30,6.80
2014,11,20,03,31,6.80
2014,11,20,03,32,6.80
2014,11,20,03,33,6.80
2014,11,20,03,34,6.80
2014,11,20,03,35,6.70
2014,11,20,03,36,6.70
2014,11,20,03,37,6.70
2014,11,20,03,38,6.70
2014,11,20,03,39,6.70
2014,11,20,03,40,6.70
2014,11,20,03,41,6.70
2014,11,20,03,42,6.70
2014,11,20,03,43,6.70
2014,11,20,03,44,6.70
2014,11,20,03,45,6.80
2014,11,20,03,46,6.80
2014,11,20,03,47,6.80
2014,11,20,03,48,6.80
2014,11,20,03,49,6.80
2014,11,20,03,50,6.80
2014,11,20,03,51,6.80
2014,11,20,03,52,6.80
2014,11,20,03,53,6.80
2014,11,20,03,54,6.80
2014,11,20,03,55,6.80
2014,11,20,03,56,6.80
2014,11,20,03,57,6.80
2014,11,20,03,58,6.80
2014,11,20,03,59,6.80
2014,11,20,04,00,6.80
2014,11,20,04,01,6.80
2014,11,20,04,02,6.80
2014,11,20,04,03,6.80
2014,11,20,04,04,6.80
2014,11,20,04,05,6.80
2014,11,20,04,06,6.80
2014,11,20,04,07,6.80
2014,11,20,04,08,6.80
2014,11,20,04,09,6.80
2014,11,20,04,10,6.80
2014,11,20,04,11,6.80
2014,11,20,04,12,6.80
2014,11,20,04,13,6.80
2014,11,20,04,14,6.80
2014,11,20,04,15,6.80
2014,11,20,04,16,6.70
2014,11,20,04,17,6.70
2014,11,20,04,18,6.70
2014,11,20,04,19,6.70
2014,11,20,04,20,6.70
2014,11,20,04,21,6.70
2014,11,20,04,22,6.70
2014,11,20,04,23,6.70
2014,11,20,04,24,6.70
2014,11,20,04,25,6.70
2014,11,20,04,26,6.60
2014,11,20,04,27,6.60
2014,11,20,04,28,6.60
2014,11,20,04,29,6.60
2014,11,20,04,30,6.60
2014,11,20,04,31,6.60
2014,11,20,04,32,6.60
2014,11,20,04,33,6.60
2014,11,20,04,34,6.60
2014,11,20,04,35,6.60
2014,11,20,04,36,6.60
2014,11,20,04,37,6.60
2014,11,20,04,38,6.60
2014,11,20,04,39,6.60
2014,11,20,04,40,6.60
2014,11,20,04,41,6.60
2014,11,20,04,42,6.60
2014,11,20,04,43,6.60
2014,11,20,04,44,6.60
2014,11,20,04,45,6.50
2014,11,20,04,46,6.40
2014,11,20,04,47,6.40
2014,11,20,04,48,6.40
2014,11,20,04,49,6.40
2014,11,20,04,50,6.40
2014,11,20,04,51,6.40
2014,11,20,04,52,6.40
2014,11,20,04,53,6.40
2014,11,20,04,54,6.40
2014,11,20,04,55,6.30
2014,11,20,04,56,6.30
2014,11,20,04,57,6.30
2014,11,20,04,58,6.30
2014,11,20,04,59,6.30
2014,11,20,05,00,6.30
2014,11,20,05,01,6.20
2014,11,20,05,02,6.20
2014,11,20,05,03,6.20
2014,11,20,05,04,6.20
2014,11,20,05,05,6.20
2014,11,20,05,06,6.20
2014,11,20,05,07,6.20
2014,11,20,05,08,6.20
2014,11,20,05,09,6.20
2014,11,20,05,10,6.10
2014,11,20,05,11,6.10
2014,11,20,05,12,6.10
2014,11,20,05,13,6.00
2014,11,20,05,14,6.00
2014,11,20,05,15,6.00
2014,11,20,05,16,6.00
2014,11,20,05,17,6.00
2014,11,20,05,18,5.90
2014,11,20,05,19,5.90
2014,11,20,05,20,5.90
2014,11,20,05,21,5.90
2014,11,20,05,22,5.90
2014,11,20,05,23,5.80
2014,11,20,05,24,5.80
2014,11,20,05,25,5.80
2014,11,20,05,26,5.80
2014,11,20,05,27,5.70
2014,11,20,05,28,5.70
2014,11,20,05,29,5.70
2014,11,20,05,30,5.70
2014,11,20,05,31,5.70
2014,11,20,05,32,5.70
2014,11,20,05,33,5.70
2014,11,20,05,34,5.70
2014,11,20,05,35,5.70
2014,11,20,05,36,5.60
2014,11,20,05,37,5.60
2014,11,20,05,38,5.60
2014,11,20,05,39,5.60
2014,11,20,05,40,5.50
2014,11,20,05,41,5.50
2014,11,20,05,42,5.40
2014,11,20,05,43,5.40
2014,11,20,05,44,5.40
2014,11,20,05,45,5.30
2014,11,20,05,46,5.30
2014,11,20,05,47,5.30
2014,11,20,05,48,5.30
2014,11,20,05,49,5.30
2014,11,20,05,50,5.30
2014,11,20,05,51,5.30
2014,11,20,05,52,5.30
2014,11,20,05,53,5.20
2014,11,20,05,54,5.20
2014,11,20,05,55,5.20
2014,11,20,05,56,5.20
2014,11,20,05,57,5.20
2014,11,20,05,58,5.20
2014,11,20,05,59,5.20
2014,11,20,06,00,5.20
2014,11,20,06,01,5.20
2014,11,20,06,02,5.20
2014,11,20,06,03,5.20
2014,11,20,06,04,5.20
2014,11,20,06,05,5.30
2014,11,20,06,06,5.30
2014,11,20,06,07,5.30
2014,11,20,06,08,5.30
2014,11,20,06,09,5.30
2014,11,20,06,10,5.30
2014,11,20,06,11,5.30
2014,11,20,06,12,5.30
2014,11,20,06,13,5.30
2014,11,20,06,14,5.30
2014,11,20,06,15,5.30
2014,11,20,06,16,5.30
2014,11,20,06,17,5.30
2014,11,20,06,18,5.30
2014,11,20,06,19,5.30
2014,11,20,06,20,5.30
2014,11,20,06,21,5.30
2014,11,20,06,22,5.30
2014,11,20,06,23,5.30
2014,11,20,06,24,5.30
2014,11,20,06,25,5.30
2014,11,20,06,26,5.30
2014,11,20,06,27,5.30
2014,11,20,06,28,5.30
2014,11,20,06,29,5.30
2014,11,20,06,30,5.40
2014,11,20,06,31,5.40
2014,11,20,06,32,5.40
2014,11,20,06,33,5.40
2014,11,20,06,34,5.50
2014,11,20,06,35,5.50
2014,11,20,06,36,5.50
2014,11,20,06,37,5.50
2014,11,20,06,38,5.50
2014,11,20,06,39,5.50
2014,11,20,06,40,5.50
2014,11,20,06,41,5.60
2014,11,20,06,42,5.60
2014,11,20,06,43,5.70
2014,11,20,06,44,5.70
2014,11,20,06,45,5.70
2014,11,20,06,46,5.70
2014,11,20,06,47,5.70
2014,11,20,06,48,5.70
2014,11,20,06,49,5.70
2014,11,20,06,50,5.70
2014,11,20,06,51,5.80
2014,11,20,06,52,5.80
2014,11,20,06,53,5.80
2014,11,20,06,54,5.80
2014,11,20,06,55,5.80
2014,11,20,06,56,5.80
2014,11,20,06,57,5.80
2014,11,20,06,58,5.90
2014,11,20,06,59,5.90
2014,11,20,07,00,5.90
2014,11,20,07,01,5.90
2014,11,20,07,02,5.80
2014,11,20,07,03,5.80
2014,11,20,07,04,5.80
2014,11,20,07,05,5.80
2014,11,20,07,06,5.80
2014,11,20,07,07,5.90
2014,11,20,07,08,6.00
2014,11,20,07,09,6.20
2014,11,20,07,10,6.20
2014,11,20,07,11,6.20
2014,11,20,07,12,6.20
2014,11,20,07,13,6.20
2014,11,20,07,14,6.10
2014,11,20,07,15,6.10
2014,11,20,07,16,6.10
2014,11,20,07,17,6.10
2014,11,20,07,18,6.10
2014,11,20,07,19,6.00
2014,11,20,07,20,6.10
2014,11,20,07,21,6.10
2014,11,20,07,22,6.10
2014,11,20,07,23,6.10
2014,11,20,07,24,6.10
2014,11,20,07,25,6.10
2014,11,20,07,26,6.20
2014,11,20,07,27,6.20
2014,11,20,07,28,6.20
2014,11,20,07,29,6.20
2014,11,20,07,30,6.20
2014,11,20,07,31,6.20
2014,11,20,07,32,6.20
2014,11,20,07,33,6.20
2014,11,20,07,34,6.20
2014,11,20,07,35,6.20
2014,11,20,07,36,6.20
2014,11,20,07,37,6.30
2014,11,20,07,38,6.30
2014,11,20,07,39,6.30
2014,11,20,07,40,6.30
2014,11,20,07,41,6.30
2014,11,20,07,42,6.30
2014,11,20,07,43,6.30
2014,11,20,07,44,6.30
2014,11,20,07,45,6.30
2014,11,20,07,46,6.30
2014,11,20,07,47,6.30
2014,11,20,07,48,6.30
2014,11,20,07,49,6.30
2014,11,20,07,50,6.30
2014,11,20,07,51,6.30
2014,11,20,07,52,6.30
2014,11,20,07,53,6.30
2014,11,20,07,54,6.30
2014,11,20,07,55,6.30
2014,11,20,07,56,6.30
2014,11,20,07,57,6.30
2014,11,20,07,58,6.30
2014,11,20,07,59,6.30
2014,11,20,08,00,6.40
2014,11,20,08,01,6.40
2014,11,20,08,02,6.40
2014,11,20,08,03,6.40
2014,11,20,08,04,6.30
2014,11,20,08,05,6.30
2014,11,20,08,06,6.30
2014,11,20,08,07,6.30
2014,11,20,08,08,6.40
2014,11,20,08,09,6.40
2014,11,20,08,10,6.40
2014,11,20,08,11,6.40
2014,11,20,08,12,6.40
2014,11,20,08,13,6.50
2014,11,20,08,14,6.60
2014,11,20,08,15,6.60
2014,11,20,08,16,6.60
2014,11,20,08,17,6.60
2014,11,20,08,18,6.60
2014,11,20,08,19,6.60
2014,11,20,08,20,6.60
2014,11,20,08,21,6.60
2014,11,20,08,22,6.60
2014,11,20,08,23,6.70
2014,11,20,08,24,6.70
2014,11,20,08,25,6.70
2014,11,20,08,26,6.80
2014,11,20,08,27,6.80
2014,11,20,08,28,6.90
2014,11,20,08,29,6.90
2014,11,20,08,30,6.90
2014,11,20,08,31,6.90
2014,11,20,08,32,7.00
2014,11,20,08,33,7.00
2014,11,20,08,34,7.10
2014,11,20,08,35,7.10
2014,11,20,08,36,7.10
2014,11,20,08,37,7.10
2014,11,20,08,38,7.10
2014,11,20,08,39,7.10
2014,11,20,08,40,7.20
2014,11,20,08,41,7.20
2014,11,20,08,42,7.20
2014,11,20,08,43,7.20
2014,11,20,08,44,7.10
2014,11,20,08,45,7.10
2014,11,20,08,46,7.10
2014,11,20,08,47,7.10
2014,11,20,08,48,7.20
2014,11,20,08,49,7.20
2014,11,20,08,50,7.30
2014,11,20,08,51,7.30
2014,11,20,08,52,7.30
2014,11,20,08,53,7.40
2014,11,20,08,54,7.40
2014,11,20,08,55,7.40
2014,11,20,08,56,7.40
2014,11,20,08,57,7.40
2014,11,20,08,58,7.50
2014,11,20,08,59,7.50
2014,11,20,09,00,7.50
2014,11,20,09,01,7.50
2014,11,20,09,02,7.60
2014,11,20,09,03,7.60
2014,11,20,09,04,7.60
2014,11,20,09,05,7.60
2014,11,20,09,06,7.60
2014,11,20,09,07,7.60
2014,11,20,09,08,7.60
2014,11,20,09,09,7.60
2014,11,20,09,10,7.60
2014,11,20,09,11,7.70
2014,11,20,09,12,7.70
2014,11,20,09,13,7.70
2014,11,20,09,14,7.70
2014,11,20,09,15,7.70
2014,11,20,09,16,7.70
2014,11,20,09,17,7.70
2014,11,20,09,18,7.70
2014,11,20,09,19,7.70
2014,11,20,09,20,7.80
2014,11,20,09,21,7.80
2014,11,20,09,22,7.80
2014,11,20,09,23,7.80
2014,11,20,09,24,7.80
2014,11,20,09,25,7.80
2014,11,20,09,26,7.70
2014,11,20,09,27,7.70
2014,11,20,09,28,7.70
2014,11,20,09,29,7.70
2014,11,20,09,30,7.70
2014,11,20,09,31,7.70
2014,11,20,09,32,7.70
2014,11,20,09,33,7.70
2014,11,20,09,34,7.70
2014,11,20,09,35,7.70
2014,11,20,09,36,7.70
2014,11,20,09,37,7.70
2014,11,20,09,38,7.80
2014,11,20,09,39,7.80
2014,11,20,09,40,7.80
2014,11,20,09,41,7.80
2014,11,20,09,42,7.90
2014,11,20,09,43,7.90
2014,11,20,09,44,7.90
2014,11,20,09,45,8.00
2014,11,20,09,46,8.00
2014,11,20,09,47,8.00
2014,11,20,09,48,8.00
2014,11,20,09,49,8.00
2014,11,20,09,50,8.00
2014,11,20,09,51,8.00
2014,11,20,09,52,8.00
2014,11,20,09,53,8.00
2014,11,20,09,54,8.00
2014,11,20,09,55,8.00
2014,11,20,09,56,8.00
2014,11,20,09,57,8.00
2014,11,20,09,58,8.10
2014,11,20,09,59,8.10
2014,11,20,10,00,8.10
2014,11,20,10,01,8.10
2014,11,20,10,02,8.10
2014,11,20,10,03,8.10
2014,11,20,10,04,8.20
2014,11,20,10,05,8.20
2014,11,20,10,06,8.20
2014,11,20,10,07,8.20
2014,11,20,10,08,8.20
2014,11,20,10,09,8.20
2014,11,20,10,10,8.20
2014,11,20,10,11,8.20
2014,11,20,10,12,8.20
2014,11,20,10,13,8.20
2014,11,20,10,14,8.20
2014,11,20,10,15,8.20
2014,11,20,10,16,8.20
2014,11,20,10,17,8.20
2014,11,20,10,18,8.20
2014,11,20,10,19,8.30
2014,11,20,10,20,8.30
2014,11,20,10,21,8.30
2014,11,20,10,22,8.30
2014,11,20,10,23,8.30
2014,11,20,10,24,8.30
2014,11,20,10,25,8.40
2014,11,20,10,26,8.40
2014,11,20,10,27,8.40
2014,11,20,10,28,8.40
2014,11,20,10,29,8.40
2014,11,20,10,30,8.40
2014,11,20,10,31,8.40
2014,11,20,10,32,8.40
2014,11,20,10,33,8.40
2014,11,20,10,34,8.40
2014,11,20,10,35,8.40
2014,11,20,10,36,8.40
2014,11,20,10,37,8.40
2014,11,20,10,38,8.40
2014,11,20,10,39,8.40
2014,11,20,10,40,8.50
2014,11,20,10,41,8.50
2014,11,20,10,42,8.50
2014,11,20,10,43,8.50
2014,11,20,10,44,8.50
2014,11,20,10,45,8.50
2014,11,20,10,46,8.50
2014,11,20,10,47,8.50
2014,11,20,10,48,8.50
2014,11,20,10,49,8.50
2014,11,20,10,50,8.50
2014,11,20,10,51,8.50
2014,11,20,10,52,8.50
2014,11,20,10,53,8.40
2014,11,20,10,54,8.40
2014,11,20,10,55,8.40
2014,11,20,10,56,8.40
2014,11,20,10,57,8.40
2014,11,20,10,58,8.40
2014,11,20,10,59,8.40
2014,11,20,11,00,8.50
2014,11,20,11,01,8.50
2014,11,20,11,02,8.50
2014,11,20,11,03,8.50
2014,11,20,11,04,8.50
2014,11,20,11,05,8.50
2014,11,20,11,06,8.50
2014,11,20,11,07,8.50
2014,11,20,11,08,8.50
2014,11,20,11,09,8.50
2014,11,20,11,10,8.50
2014,11,20,11,11,8.60
2014,11,20,11,12,8.60
2014,11,20,11,13,8.60
2014,11,20,11,14,8.60
2014,11,20,11,15,8.60
2014,11,20,11,16,8.60
2014,11,20,11,17,8.60
2014,11,20,11,18,8.70
2014,11,20,11,19,8.70
2014,11,20,11,20,8.70
2014,11,20,11,21,8.70
2014,11,20,11,22,8.70
2014,11,20,11,23,8.70
2014,11,20,11,24,8.70
2014,11,20,11,25,8.70
2014,11,20,11,26,8.70
2014,11,20,11,27,8.70
2014,11,20,11,28,8.70
2014,11,20,11,29,8.70
2014,11,20,11,30,8.70
2014,11,20,11,31,8.80
2014,11,20,11,32,8.80
2014,11,20,11,33,8.80
2014,11,20,11,34,8.80
2014,11,20,11,35,8.80
2014,11,20,11,36,8.80
2014,11,20,11,37,8.80
2014,11,20,11,38,8.80
2014,11,20,11,39,8.80
2014,11,20,11,40,8.80
2014,11,20,11,41,8.80
2014,11,20,11,42,8.80
2014,11,20,11,43,8.80
2014,11,20,11,44,8.80
2014,11,20,11,45,8.80
2014,11,20,11,46,8.80
2014,11,20,11,47,8.80
2014,11,20,11,48,8.80
2014,11,20,11,49,8.80
2014,11,20,11,50,8.80
2014,11,20,11,51,8.80
2014,11,20,11,52,8.80
2014,11,20,11,53,8.80
2014,11,20,11,54,8.80
2014,11,20,11,55,8.80
2014,11,20,11,56,8.80
2014,11,20,11,57,8.80
2014,11,20,11,58,8.80
2014,11,20,11,59,8.80
2014,11,20,12,00,8.80
2014,11,20,12,01,8.80
2014,11,20,12,02,8.80
2014,11,20,12,03,8.80
2014,11,20,12,04,8.80
2014,11,20,12,05,8.80
2014,11,20,12,06,8.80
2014,11,20,12,07,8.80
2014,11,20,12,08,8.80
2014,11,20,12,09,8.80
2014,11,20,12,10,8.80
2014,11,20,12,11,8.80
2014,11,20,12,12,8.80
2014,11,20,12,13,8.80
2014,11,20,12,14,8.80
2014,11,20,12,15,8.80
2014,11,20,12,16,8.80
2014,11,20,12,17,8.80
2014,11,20,12,18,8.80
2014,11,20,12,19,8.80
2014,11,20,12,20,8.90
2014,11,20,12,21,8.90
2014,11,20,12,22,8.90
2014,11,20,12,23,8.90
2014,11,20,12,24,8.90
2014,11,20,12,25,8.90
2014,11,20,12,26,8.90
2014,11,20,12,27,8.90
2014,11,20,12,28,8.90
2014,11,20,12,29,8.90
2014,11,20,12,30,8.90
2014,11,20,12,31,8.90
2014,11,20,12,32,8.90
2014,11,20,12,33,8.90
2014,11,20,12,34,8.90
2014,11,20,12,35,8.90
2014,11,20,12,36,9.00
2014,11,20,12,37,9.00
2014,11,20,12,38,9.00
2014,11,20,12,39,9.00
2014,11,20,12,40,9.00
2014,11,20,12,41,9.00
2014,11,20,12,42,9.00
2014,11,20,12,43,9.00
2014,11,20,14,13,9.30
2014,11,20,14,14,9.30
2014,11,20,14,15,9.30
2014,11,20,14,16,9.30
2014,11,20,14,17,9.30
2014,11,20,14,18,9.30
2014,11,20,14,19,9.30
2014,11,20,14,20,9.30
2014,11,20,14,21,9.30
2014,11,20,14,22,9.30
2014,11,20,14,23,9.30
2014,11,20,14,24,9.30
2014,11,20,14,25,9.30
2014,11,20,14,26,9.30
2014,11,20,14,27,9.30
2014,11,20,14,28,9.30
2014,11,20,14,29,9.30
2014,11,20,14,30,9.30
2014,11,20,14,31,9.30
2014,11,20,14,32,9.30
2014,11,20,14,33,9.30
2014,11,20,14,34,9.30
2014,11,20,14,35,9.30
2014,11,20,14,36,9.30
2014,11,20,14,37,9.30
2014,11,20,14,38,9.30
2014,11,20,14,39,9.30
2014,11,20,14,40,9.30
2014,11,20,14,41,9.30
2014,11,20,14,42,9.30
2014,11,20,14,43,9.30
2014,11,20,14,44,9.30
2014,11,20,14,45,9.30
2014,11,20,14,46,9.30
2014,11,20,14,47,9.30
2014,11,20,14,48,9.30
2014,11,20,14,49,9.30
2014,11,20,14,50,9.30
2014,11,20,14,51,9.30
2014,11,20,14,52,9.30
2014,11,20,14,53,9.30
2014,11,20,14,54,9.30
2014,11,20,14,55,9.30
2014,11,20,14,56,9.30
2014,11,20,14,57,9.30
2014,11,20,14,58,9.30
2014,11,20,14,59,9.30
2014,11,20,15,00,9.30
2014,11,20,15,01,9.30
2014,11,20,15,02,9.30
2014,11,20,15,03,9.40
2014,11,20,15,04,9.40
2014,11,20,15,05,9.40
2014,11,20,15,06,9.40
2014,11,20,15,07,9.40
2014,11,20,15,08,9.40
2014,11,20,15,09,9.40
2014,11,20,15,10,9.40
2014,11,20,15,11,9.40
2014,11,20,15,12,9.40
2014,11,20,15,13,9.40
2014,11,20,15,14,9.40
2014,11,20,15,15,9.40
2014,11,20,15,16,9.30
2014,11,20,15,17,9.30
2014,11,20,15,18,9.30
2014,11,20,15,19,9.30
2014,11,20,15,20,9.30
2014,11,20,15,21,9.30
2014,11,20,15,22,9.30
2014,11,20,15,23,9.30
2014,11,20,15,24,9.30
2014,11,20,15,25,9.30
2014,11,20,15,26,9.30
2014,11,20,15,27,9.30
2014,11,20,15,28,9.30
2014,11,20,15,29,9.30
2014,11,20,15,30,9.30
2014,11,20,15,31,9.30
2014,11,20,15,32,9.30
2014,11,20,15,33,9.30
2014,11,20,15,34,9.30
2014,11,20,15,35,9.30
2014,11,20,15,36,9.30
2014,11,20,15,37,9.30
2014,11,20,15,38,9.30
2014,11,20,15,39,9.30
2014,11,20,15,40,9.30
2014,11,20,15,41,9.30
2014,11,20,15,42,9.30
2014,11,20,15,43,9.30
2014,11,20,15,44,9.30
2014,11,20,15,45,9.30
2014,11,20,15,46,9.30
2014,11,20,15,47,9.30
2014,11,20,15,48,9.30
2014,11,20,15,49,9.30
2014,11,20,15,50,9.30
2014,11,20,15,51,9.30
2014,11,20,15,52,9.30
2014,11,20,15,53,9.30
2014,11,20,15,54,9.30
2014,11,20,15,55,9.40
2014,11,20,15,56,9.40
2014,11,20,15,57,9.40
2014,11,20,15,58,9.40
2014,11,20,15,59,9.40
2014,11,20,16,00,9.40
2014,11,20,16,01,9.40
2014,11,20,16,02,9.40
2014,11,20,16,03,9.40
2014,11,20,16,04,9.40
2014,11,20,16,05,9.40
2014,11,20,16,06,9.40
2014,11,20,16,07,9.40
2014,11,20,16,08,9.40
2014,11,20,16,09,9.40
2014,11,20,16,10,9.40
2014,11,20,16,11,9.40
2014,11,20,16,12,9.40
2014,11,20,16,13,9.40
2014,11,20,16,14,9.40
2014,11,20,16,15,9.40
2014,11,20,16,16,9.40
2014,11,20,16,17,9.40
2014,11,20,16,18,9.40
2014,11,20,16,19,9.40
2014,11,20,16,20,9.40
2014,11,20,16,21,9.30
2014,11,20,16,22,9.30
2014,11,20,16,23,9.30
2014,11,20,16,24,9.30
2014,11,20,16,25,9.30
2014,11,20,16,26,9.30
2014,11,20,16,27,9.30
2014,11,20,16,28,9.30
2014,11,20,16,29,9.30
2014,11,20,16,30,9.30
2014,11,20,16,31,9.20
2014,11,20,16,32,9.20
2014,11,20,16,33,9.20
2014,11,20,16,34,9.20
2014,11,20,16,35,9.20
2014,11,20,16,36,9.20
2014,11,20,16,37,9.20
2014,11,20,16,38,9.20
2014,11,20,16,39,9.20
2014,11,20,16,40,9.20
2014,11,20,16,41,9.20
2014,11,20,16,42,9.20
2014,11,20,16,43,9.20
2014,11,20,16,44,9.20
2014,11,20,16,45,9.20
2014,11,20,16,46,9.20
2014,11,20,16,47,9.20
2014,11,20,16,48,9.20
2014,11,20,16,49,9.20
2014,11,20,16,50,9.20
2014,11,20,16,51,9.20
2014,11,20,16,52,9.20
2014,11,20,16,53,9.20
2014,11,20,16,54,9.20
2014,11,20,16,55,9.10
2014,11,20,16,56,9.10
2014,11,20,16,57,9.10
2014,11,20,16,58,9.10
2014,11,20,16,59,9.10
2014,11,20,17,00,9.10
2014,11,20,17,01,9.10
2014,11,20,17,02,9.10
2014,11,20,17,03,9.10
2014,11,20,17,04,9.10
2014,11,20,17,05,9.10
2014,11,20,17,06,9.10
2014,11,20,17,07,9.10
2014,11,20,17,08,9.10
2014,11,20,17,09,9.10
2014,11,20,17,10,9.10
2014,11,20,17,11,9.10
2014,11,20,17,12,9.10
2014,11,20,17,13,9.10
2014,11,20,17,14,9.10
2014,11,20,17,15,9.10
2014,11,20,17,16,9.10
2014,11,20,17,17,9.10
2014,11,20,17,18,9.10
2014,11,20,17,19,9.10
2014,11,20,17,20,9.10
2014,11,20,17,21,9.10
2014,11,20,17,22,9.10
2014,11,20,17,23,9.10
2014,11,20,17,24,9.10
2014,11,20,17,25,9.10
2014,11,20,17,26,9.10
2014,11,20,17,27,9.10
2014,11,20,17,28,9.10
2014,11,20,17,29,9.10
2014,11,20,17,30,9.10
2014,11,20,17,31,9.10
2014,11,20,17,32,9.10
2014,11,20,17,33,9.00
2014,11,20,17,34,9.00
2014,11,20,17,35,9.00
2014,11,20,17,36,9.00
2014,11,20,17,37,9.00
2014,11,20,17,38,9.00
2014,11,20,17,39,9.00
2014,11,20,17,40,9.00
2014,11,20,17,41,9.00
2014,11,20,17,42,9.00
2014,11,20,17,43,9.00
2014,11,20,17,44,9.00
2014,11,20,17,45,9.00
2014,11,20,17,46,9.00
2014,11,20,17,47,8.90
2014,11,20,17,48,8.90
2014,11,20,17,49,8.90
2014,11,20,17,50,8.90
2014,11,20,17,51,8.90
2014,11,20,17,52,8.90
2014,11,20,17,53,8.90
2014,11,20,17,54,8.90
2014,11,20,17,55,8.90
2014,11,20,17,56,8.90
2014,11,20,17,57,8.90
2014,11,20,17,58,8.80
2014,11,20,17,59,8.80
2014,11,20,18,00,8.80
2014,11,20,18,01,8.80
2014,11,20,18,02,8.80
2014,11,20,18,03,8.80
2014,11,20,18,04,8.80
2014,11,20,18,05,8.80
2014,11,20,18,06,8.80
2014,11,20,18,07,8.80
2014,11,20,18,08,8.80
2014,11,20,18,09,8.80
2014,11,20,18,10,8.80
2014,11,20,18,11,8.80
2014,11,20,18,12,8.80
2014,11,20,18,13,8.80
2014,11,20,18,14,8.80
2014,11,20,18,15,8.80
2014,11,20,18,16,8.80
2014,11,20,18,17,8.80
2014,11,20,18,18,8.80
2014,11,20,18,19,8.80
2014,11,20,18,20,8.80
2014,11,20,18,21,8.80
2014,11,20,18,22,8.80
2014,11,20,18,23,8.80
2014,11,20,18,24,8.70
2014,11,20,18,25,8.70
2014,11,20,18,26,8.70
2014,11,20,18,27,8.70
2014,11,20,18,28,8.70
2014,11,20,18,29,8.70
2014,11,20,18,30,8.70
2014,11,20,18,31,8.70
2014,11,20,18,32,8.70
2014,11,20,18,33,8.70
2014,11,20,18,34,8.70
2014,11,20,18,35,8.70
2014,11,20,18,36,8.70
2014,11,20,18,37,8.60
2014,11,20,18,38,8.60
2014,11,20,18,39,8.60
2014,11,20,18,40,8.60
2014,11,20,18,41,8.60
2014,11,20,18,42,8.60
2014,11,20,18,43,8.60
2014,11,20,18,44,8.60
2014,11,20,18,45,8.60
2014,11,20,18,46,8.60
2014,11,20,18,47,8.60
2014,11,20,18,48,8.60
2014,11,20,18,49,8.60
2014,11,20,18,50,8.60
2014,11,20,18,51,8.60
2014,11,20,18,52,8.60
2014,11,20,18,53,8.60
2014,11,20,18,54,8.60
2014,11,20,18,55,8.60
2014,11,20,18,56,8.60
2014,11,20,18,57,8.60
2014,11,20,18,58,8.60
2014,11,20,18,59,8.60
2014,11,20,19,00,8.60
2014,11,20,19,01,8.60
2014,11,20,19,02,8.50
2014,11,20,19,03,8.50
2014,11,20,19,04,8.50
2014,11,20,19,05,8.50
2014,11,20,19,06,8.50
2014,11,20,19,07,8.50
2014,11,20,19,08,8.50
2014,11,20,19,09,8.50
2014,11,20,19,10,8.50
2014,11,20,19,11,8.50
2014,11,20,19,12,8.50
2014,11,20,19,13,8.50
2014,11,20,19,14,8.50
2014,11,20,19,15,8.50
2014,11,20,19,16,8.50
2014,11,20,19,17,8.50
2014,11,20,19,18,8.50
2014,11,20,19,19,8.50
2014,11,20,19,20,8.50
2014,11,20,19,21,8.50
2014,11,20,19,22,8.50
2014,11,20,19,23,8.50
2014,11,20,19,24,8.50
2014,11,20,19,25,8.50
2014,11,20,19,26,8.50
2014,11,20,19,27,8.50
2014,11,20,19,28,8.50
2014,11,20,19,29,8.50
2014,11,20,19,30,8.40
2014,11,20,19,31,8.40
2014,11,20,19,32,8.40
2014,11,20,19,33,8.40
2014,11,20,19,34,8.40
2014,11,20,19,35,8.40